Showing default

COSMO, 68460

Orbit data source: Space-Track

COSMO, 68460 is a payload satellite owned by Colorado (US) in SSO that was launched on Mon, 30 Mar 2026 UTC via an FALCON 9 launch vehicle from the Air Force Western Test Range (AFWTR). Payload-class satellites include a variety of spacecraft equipped with specific instruments for various scientific and technological missions. These include communications satellites like Starlink; space stations such as the ISS; scientific satellites like the Hubble; Earth observation satellites from companies like Planet Labs, Umbra, and HawkEye 360; GPS; miniature CubeSats for education and research; and military/defense satellites.

Loading next visibility...
Identifier
68460, 2026-067AW
Orbit
SSO
Country
Flag of USUS
Related business
Manufacturer
Colorado
Mission
Operational Amateur Science
Bus & Motor
CUBESAT 6UXL, Unknown motor
Mass
~10 kg wet, ~10 kg dry
Launch date (UTC)
2026-03-30 (5 months ago)
Launch vehicle
FALCON 9
Launch site
Air Force Western Test Range (AFWTR)
Object type
Payload
Rocket body
Debris
Shape & HBR
Box, 0.3 m
Radar Cross Section
0.075 m², Medium (>0.1 m² and < 1m²)

Expand to show TLE details & history
Last TLE update: 11 hours ago

TLE from 11 hours ago
0 COSMO
1 68460U 26067AW  26249.42934588  .00007288  00000-0  34748-3 0  9995
2 68460  97.4555 206.5910 0007186 132.3646 227.8198 15.19373950 24265
Epoch: 2026-09-06T10:18Z
TLE epoch observation values (Epoch: 2026-09-06T10:18:15.484Z)
Latitude
-0.00001°
Longitude
66.50189°
Altitude
514.145 km
Speed
7.605 km/s
True Right ascension
13h 46m 21s
True Declination
0° 00' 00"
Sunlit
Object was in daylight at epoch
Visualization orbit readout
Latitude
Unknown
Longitude
Unknown
Altitude
Unknown
Speed
Unknown
Apparent Right ascension
Unknown
Apparent Declination
Unknown
Sunlit
N/A
Visualization observer readout
Local Sidereal Time
13:33:55
Azimuth
Unknown
Elevation
Unknown
Doppler factor
Unknown
Orbital elements
Apogee altitude
509.646 km
Perigee altitude
499.754 km
Semi-major axis
6,882.837 km
Eccentricity
0.00072
Inclination
97.4555°
RAAN
206.591°
Arg. of periapsis
132.3646°
True anomaly
227.75882°
Mean anomaly
227.8198°
Eccentric anomaly
227.7893°
Mean motion
3.80095 °/min
Orbital period
94.71 mins
BSTAR
0.00034748
Loading maneuver chart data...
Computing Atmospheric mass density...
Loading historical data...
Loading historical data...
Loading historical data...
Loading historical data...
Loading historical data...
Loading historical data...
Loading historical data...

Documentation

Showing up to 5 results
|